Wind_Speed
34 34 34 34 34 33 33 33 32 33 33 33 33 34 35 34 35 34 34 33 33 32 31 31 30 30 29 29 28 28 27 26 26 26 26 25 24 24 24 23 23 24 23
35 35 35 35 35 35 35 35 35 34 34 34 34 35 35 35 36 36 36 35 35 34 34 34 33 32 32 31 31 31 30 29 29 28 28 27 26 27 26 26 26 26 25
35 36 36 36 36 36 36 37 36 36 36 35 35 35 36 36 37 37 37 36 36 36 36 36 36 35 34 33 34 33 32 32 31 31 30 29 28 28 28 27 28 28 28
35 35 36 36 36 37 37 37 38 38 38 37 37 36 36 36 36 37 37 37 37 37 38 38 38 38 36 36 36 36 35 35 34 34 33 32 31 30 30 30 30 30 30
35 35 37 37 37 37 37 38 38 37 38 39 38 38 38 38 38 38 39 38 39 39 39 40 40 40 38 38 38 38 38 38 37 37 36 34 33 32 32 33 32 32 31
36 36 37 37 37 37 38 38 39 39 39 40 40 40 40 40 40 40 40 40 41 41 41 41 42 42 41 41 40 41 40 40 40 39 38 37 37 36 35 35 35 34 34
37 38 38 37 38 38 38 39 39 40 40 40 42 42 42 41 41 41 41 42 42 43 42 43 44 43 43 43 43 43 43 42 42 42 41 40 39 38 37 37 37 37 37
36 37 37 38 38 38 38 39 39 40 40 40 42 43 44 44 43 43 43 44 44 45 45 44 45 45 45 45 44 44 45 44 43 43 43 43 42 41 40 39 40 40 39
35 35 36 36 37 37 38 38 39 40 40 41 42 43 45 45 44 45 45 45 46 46 46 46 46 46 47 47 46 46 46 46 45 44 44 44 43 42 41 40 40 40 40
34 34 35 35 36 37 37 37 38 40 41 42 43 44 45 46 47 47 47 47 47 47 48 48 47 47 47 47 47 47 46 46 46 46 45 45 45 44 43 42 41 41 41
34 35 35 35 36 36 37 37 38 39 40 42 43 44 45 46 47 48 48 48 48 48 48 48 48 48 48 47 47 47 47 47 48 47 47 47 47 45 44 43 42 42 43
34 35 36 36 36 37 37 38 38 39 40 42 43 44 45 46 47 48 49 49 49 49 49 48 49 48 48 48 48 48 49 48 48 49 49 49 48 46 45 44 44 44 45
35 35 35 36 36 37 38 39 39 40 40 42 43 44 45 46 47 47 47 48 48 48 48 48 48 49 49 49 49 49 49 49 49 49 49 49 48 47 46 46 45 45 45
35 36 36 36 37 37 38 39 39 40 41 42 43 43 44 44 46 47 46 46 47 47 47 46 46 48 49 50 50 50 50 50 50 50 50 50 50 50 49 48 47 47 47
36 36 37 37 37 37 38 38 39 40 41 42 43 44 44 44 44 44 44 44 45 45 45 46 46 46 47 49 51 51 51 51 52 52 52 52 52 52 51 51 50 50 50
37 37 37 37 38 39 38 39 39 40 41 41 41 42 42 42 42 43 43 44 44 45 45 45 46 45 46 48 49 51 51 51 52 52 52 53 53 53 53 53 52 52 52
37 37 38 38 39 39 39 40 40 40 40 40 40 41 41 41 41 42 43 44 44 44 44 44 45 45 46 48 48 50 50 50 51 52 52 52 52 54 54 53 53 53 54
38 38 38 39 40 40 40 40 39 39 39 38 38 39 40 40 41 41 42 43 43 44 44 44 45 45 46 46 47 49 50 50 50 50 50 50 52 54 54 53 53 54 54
37 38 38 38 39 40 40 41 40 39 39 38 38 38 39 40 41 41 42 43 43 44 44 45 45 46 47 47 47 48 49 49 50 50 50 51 53 54 54 54 54 54 55
38 38 39 39 39 39 40 40 41 39 38 38 38 38 39 40 40 41 42 43 44 45 45 45 45 46 46 46 47 48 48 49 49 50 50 52 53 54 54 55 55 55 56
38 39 39 39 39 40 40 40 40 40 39 38 38 38 39 39 40 41 42 42 43 44 44 44 44 45 45 46 47 48 49 48 48 49 50 51 53 53 54 55 56 56 56
38 38 38 38 38 38 38 39 38 38 38 38 38 38 39 39 39 40 41 42 42 42 42 43 44 44 44 45 47 48 49 49 49 49 49 50 51 53 54 55 56 56 56
38 38 38 38 38 37 37 37 37 37 37 37 38 39 39 38 38 39 40 40 40 41 41 43 44 44 44 45 47 47 48 48 48 49 49 50 52 53 53 54 54 55 56
37 37 37 37 36 36 36 36 35 36 36 36 37 37 38 38 39 39 39 39 40 40 41 41 42 43 44 44 45 46 47 47 48 48 50 50 51 51 50 51 52 53 55
36 36 36 35 35 35 35 35 34 35 35 35 35 35 35 36 37 38 38 38 38 38 39 40 41 42 42 43 44 46 47 47 47 48 48 48 48 49 49 50 51 51 52
35 35 34 34 34 34 34 34 34 34 34 35 35 35 35 36 36 36 37 37 38 38 39 40 40 41 42 43 44 45 46 46 46 46 46 46 46 47 47 48 49 50 51
Wind_Direction
248 249 249 250 250 250 251 252 253 253 253 252 250 248 247 246 244 243 243 244 245 246 247 249 250 250 251 252 251 251 252 253 254 255 258 260 263 265 267 270 272 275 278
249 249 249 249 250 250 251 252 253 253 253 252 251 250 248 247 245 243 243 244 244 246 247 249 250 251 252 253 252 251 251 253 255 256 258 260 262 265 268 270 271 274 276
250 250 250 250 251 251 252 252 254 254 253 253 251 250 249 248 246 245 246 246 245 246 248 248 249 251 252 253 252 251 251 253 255 257 258 260 263 265 268 270 272 273 274
250 250 250 250 251 252 252 253 253 254 254 253 251 250 249 248 248 248 248 248 248 249 251 250 250 251 252 252 252 251 252 253 255 257 258 260 262 264 266 269 272 273 274
250 250 251 251 252 252 253 254 254 255 255 254 251 249 248 247 248 248 248 248 249 251 252 251 252 253 254 253 253 252 252 254 255 257 258 259 261 264 266 268 270 272 273
250 251 252 252 253 254 254 254 254 255 255 254 250 249 249 249 248 248 249 250 251 251 252 253 253 253 254 254 254 254 253 254 255 257 258 259 261 264 267 269 270 272 273
252 252 251 252 253 253 254 254 255 254 255 253 250 250 251 250 249 250 250 251 251 252 253 254 254 254 254 255 255 255 254 254 256 256 257 259 261 264 267 268 269 271 273
252 252 253 253 254 254 254 254 255 254 254 252 251 251 251 251 251 251 252 253 253 253 253 254 254 254 255 255 255 255 255 255 255 256 257 259 261 264 266 266 268 270 272
253 253 253 254 254 255 256 255 255 256 256 254 254 254 253 251 250 251 252 254 255 255 254 254 255 255 255 254 255 255 255 254 254 256 257 258 260 263 265 265 267 269 270
254 255 255 255 256 256 256 257 256 257 257 256 256 256 255 253 252 253 254 254 255 255 255 254 254 254 254 255 255 255 255 255 256 256 257 258 260 262 264 264 266 268 269
255 256 256 257 258 258 257 258 259 260 259 258 258 258 256 255 255 255 255 255 256 255 254 253 254 254 254 254 254 254 255 256 257 257 258 259 260 262 264 265 266 267 268
256 257 258 258 259 258 258 259 260 261 261 260 259 259 258 257 256 257 257 256 255 255 254 253 253 254 255 255 255 254 255 257 257 257 258 259 260 262 264 266 266 267 269
257 258 259 259 259 258 258 259 261 262 263 261 261 261 261 259 258 257 257 256 255 255 255 253 253 254 254 255 256 256 256 256 257 258 259 259 260 261 263 265 266 268 270
259 259 260 259 259 259 260 260 262 264 264 263 262 262 261 260 258 258 258 257 255 255 254 254 254 254 254 255 256 256 256 256 257 257 258 260 260 261 262 264 266 268 270
258 258 260 261 261 261 262 261 261 263 263 263 262 262 261 259 258 258 257 256 255 255 254 254 255 255 255 255 255 256 255 256 257 257 258 259 260 261 262 264 266 268 269
257 257 259 260 261 260 261 261 262 262 263 263 263 261 260 259 258 257 256 256 256 256 254 253 255 256 255 256 257 257 257 257 257 257 259 259 260 262 263 265 267 268 270
258 258 259 260 261 261 261 261 261 262 262 262 262 260 259 259 258 258 256 256 257 257 256 255 256 256 257 257 258 259 258 257 257 258 259 260 261 262 264 266 268 269 270
258 258 260 261 261 260 260 260 262 262 262 262 261 260 259 259 259 258 257 256 257 258 258 258 257 258 258 258 259 260 259 259 259 260 261 262 262 263 264 266 267 269 271
260 260 261 262 262 261 260 261 261 262 262 261 261 260 258 259 258 259 259 258 258 259 259 259 258 258 258 258 259 260 261 261 261 261 262 263 264 265 265 267 268 270 271
261 262 262 262 262 262 262 262 261 262 261 260 260 260 260 259 259 260 260 260 259 259 260 260 259 259 258 258 260 261 262 262 262 263 263 264 265 266 267 268 270 272 273
262 263 263 263 263 264 264 263 262 261 261 261 261 261 260 260 260 261 260 260 260 260 260 260 260 260 260 260 261 262 263 262 263 264 264 265 266 267 268 270 271 272 273
262 262 263 263 263 263 262 262 261 262 262 263 262 262 261 262 261 262 261 261 261 260 260 261 260 261 262 263 263 263 264 263 264 265 266 268 269 269 270 271 272 273 274
261 261 261 262 261 261 261 260 261 261 262 263 263 262 262 263 262 264 263 262 261 261 261 261 261 263 263 264 265 265 265 265 265 266 268 268 270 270 271 272 272 273 274
261 261 261 260 260 260 260 260 260 261 262 263 263 262 262 262 263 264 264 262 262 262 262 262 263 264 264 265 265 266 266 267 267 268 269 270 270 270 271 272 273 274 275
261 261 260 260 260 259 260 260 260 261 262 263 263 262 262 262 263 263 263 263 264 264 264 264 265 265 264 265 266 267 268 268 269 270 270 270 269 269 271 273 274 275 276
261 260 260 261 260 260 260 260 261 261 262 262 263 262 262 263 264 264 264 265 265 266 266 266 265 265 266 267 268 269 269 270 270 271 270 270 271 271 273 274 274 276 277
Height
5788 5790 5792 5794 5796 5798 5799 5801 5802 5803 5804 5806 5807 5809 5811 5813 5815 5817 5819 5822 5824 5825 5827 5829 5830 5831 5832 5834 5834 5835 5836 5837 5838 5838 5839 5839 5839 5840 5840 5840 5839 5839 5839
5780 5782 5784 5786 5788 5790 5792 5794 5795 5796 5797 5799 5800 5802 5804 5806 5808 5810 5812 5815 5817 5819 5821 5822 5823 5825 5826 5827 5828 5829 5830 5831 5832 5832 5833 5834 5834 5834 5834 5834 5834 5834 5833
5772 5774 5776 5778 5780 5782 5784 5785 5787 5788 5790 5792 5793 5795 5797 5799 5801 5803 5805 5807 5810 5812 5814 5815 5816 5818 5819 5820 5822 5823 5824 5825 5826 5826 5827 5828 5828 5828 5829 5829 5828 5828 5828
5764 5766 5768 5770 5772 5774 5775 5777 5779 5781 5782 5784 5786 5787 5789 5792 5794 5796 5798 5800 5802 5804 5806 5807 5809 5811 5812 5813 5814 5816 5817 5818 5819 5819 5820 5821 5822 5821 5822 5822 5822 5822 5821
5755 5757 5759 5761 5763 5765 5767 5768 5770 5772 5774 5776 5778 5779 5782 5784 5786 5788 5790 5792 5794 5796 5798 5799 5801 5803 5804 5805 5806 5807 5809 5810 5811 5812 5813 5814 5814 5814 5815 5815 5815 5815 5814
5746 5748 5751 5753 5755 5757 5758 5760 5761 5763 5765 5767 5769 5771 5773 5775 5777 5780 5782 5784 5786 5788 5789 5791 5793 5794 5796 5797 5798 5799 5801 5802 5803 5804 5805 5806 5806 5807 5807 5808 5808 5808 5807
5737 5740 5742 5744 5746 5748 5750 5751 5753 5754 5756 5757 5760 5762 5764 5766 5768 5771 5773 5775 5777 5778 5780 5782 5784 5785 5787 5788 5789 5791 5792 5793 5795 5796 5797 5797 5798 5799 5799 5800 5800 5800 5799
5729 5731 5733 5735 5737 5739 5741 5742 5743 5745 5746 5748 5751 5752 5754 5757 5759 5762 5764 5765 5767 5769 5770 5772 5774 5775 5777 5778 5780 5781 5782 5784 5785 5786 5788 5788 5789 5790 5790 5791 5791 5791 5791
5720 5722 5724 5726 5728 5730 5732 5733 5735 5736 5737 5739 5741 5743 5744 5747 5749 5752 5754 5756 5757 5758 5760 5762 5763 5765 5766 5768 5770 5771 5772 5774 5775 5777 5778 5779 5780 5780 5781 5781 5782 5782 5782
5712 5713 5715 5717 5719 5721 5723 5724 5725 5727 5728 5729 5731 5733 5734 5736 5739 5741 5744 5745 5746 5747 5749 5751 5752 5754 5755 5757 5759 5761 5762 5763 5765 5766 5767 5769 5770 5770 5771 5771 5772 5772 5772
5703 5705 5707 5708 5710 5712 5713 5715 5716 5717 5718 5719 5721 5722 5723 5725 5726 5729 5731 5733 5735 5736 5737 5739 5741 5743 5744 5746 5748 5749 5751 5753 5754 5756 5757 5758 5759 5760 5761 5761 5761 5762 5762
5694 5696 5698 5699 5701 5702 5704 5705 5706 5707 5708 5709 5710 5711 5712 5713 5715 5716 5718 5720 5722 5724 5725 5727 5729 5731 5733 5734 5736 5738 5740 5741 5743 5744 5746 5747 5748 5749 5750 5750 5751 5751 5751
5686 5687 5688 5690 5691 5692 5694 5695 5696 5697 5697 5698 5699 5700 5701 5702 5703 5704 5705 5707 5709 5711 5713 5715 5717 5719 5721 5722 5724 5726 5728 5730 5731 5733 5734 5735 5736 5737 5738 5739 5740 5740 5740
5676 5677 5678 5680 5681 5682 5683 5685 5685 5686 5687 5687 5688 5688 5689 5690 5690 5692 5693 5695 5696 5699 5701 5703 5705 5706 5708 5710 5712 5714 5715 5717 5719 5721 5722 5723 5725 5725 5727 5727 5728 5728 5728
5667 5668 5669 5670 5671 5672 5673 5674 5674 5675 5676 5676 5676 5677 5677 5678 5678 5680 5681 5682 5685 5687 5690 5692 5693 5694 5695 5697 5699 5701 5703 5704 5706 5708 5710 5711 5712 5713 5714 5715 5715 5715 5715
5657 5658 5659 5660 5661 5661 5662 5663 5664 5664 5664 5664 5665 5665 5666 5666 5667 5668 5670 5671 5673 5675 5678 5680 5681 5682 5684 5685 5686 5688 5689 5691 5693 5695 5696 5698 5699 5700 5701 5702 5702 5702 5702
5646 5647 5648 5649 5650 5651 5652 5652 5653 5653 5653 5653 5653 5654 5655 5655 5656 5657 5658 5660 5662 5664 5666 5669 5669 5671 5672 5673 5674 5675 5677 5678 5680 5682 5683 5684 5686 5687 5687 5688 5688 5689 5688
5636 5637 5638 5639 5639 5640 5641 5641 5641 5641 5641 5642 5642 5643 5644 5645 5646 5647 5648 5649 5651 5652 5654 5656 5658 5659 5660 5661 5662 5663 5664 5666 5667 5668 5670 5671 5672 5673 5674 5674 5674 5674 5674
5625 5626 5627 5628 5628 5629 5629 5630 5630 5630 5631 5631 5632 5632 5633 5634 5635 5636 5637 5638 5640 5641 5642 5644 5646 5647 5648 5649 5650 5651 5652 5653 5654 5655 5656 5657 5658 5659 5660 5660 5660 5659 5659
5614 5615 5616 5616 5617 5617 5618 5618 5619 5619 5620 5620 5621 5622 5622 5623 5624 5625 5626 5627 5628 5629 5631 5632 5634 5635 5636 5637 5638 5639 5640 5641 5642 5642 5643 5644 5644 5645 5646 5646 5646 5645 5644
5603 5604 5604 5605 5605 5606 5606 5607 5608 5608 5609 5610 5610 5611 5612 5612 5613 5614 5615 5616 5617 5618 5619 5620 5622 5623 5624 5625 5626 5627 5628 5628 5629 5629 5630 5631 5631 5632 5631 5631 5630 5629 5628
5591 5592 5593 5594 5594 5595 5595 5596 5596 5597 5598 5599 5600 5600 5601 5601 5602 5603 5604 5605 5605 5607 5608 5609 5611 5612 5612 5613 5613 5614 5615 5616 5617 5618 5617 5617 5617 5617 5616 5615 5614 5613 5612
5580 5581 5582 5582 5583 5584 5584 5585 5586 5587 5587 5588 5589 5589 5590 5591 5591 5592 5593 5594 5594 5595 5597 5598 5599 5600 5601 5602 5602 5602 5602 5602 5604 5603 5603 5604 5603 5602 5601 5600 5599 5598 5597
5569 5570 5570 5571 5572 5573 5573 5574 5575 5576 5577 5578 5578 5579 5580 5580 5581 5582 5582 5583 5584 5585 5585 5586 5588 5588 5589 5589 5589 5589 5589 5590 5590 5590 5589 5590 5589 5588 5587 5586 5584 5583 5582
5558 5559 5559 5560 5561 5562 5563 5564 5565 5566 5567 5567 5568 5569 5569 5570 5570 5571 5572 5573 5574 5574 5574 5575 5576 5576 5576 5576 5576 5577 5577 5577 5578 5577 5576 5575 5574 5574 5574 5573 5571 5569 5567
5547 5548 5549 5550 5551 5552 5553 5554 5555 5556 5557 5557 5558 5558 5559 5559 5560 5560 5561 5562 5563 5563 5563 5564 5564 5565 5565 5565 5564 5564 5564 5564 5564 5564 5563 5562 5561 5560 5561 5560 5557 5555 5553